Location: Houhaj�rvi
(61.2833°N, 23.0000°E)
Time: 18:05:45
(UTC+00:00)

Cosmos 1867 - Pass Details

Date: 27 February 2020
Orbit: 778 x 798 km, 65.0° (Epoch: 27 March)

Event Time Altitude Azimuth Distance (km) Brightness Sun altitude
Rises 17:01:39 0° 273° (W) 3,305 9.2 -9.8°
Reaches altitude 10° 17:04:07 10° 277° (W) 2,377 7.7 -10.1°
Maximum altitude 17:09:32 59° 357° (N) 925 4.0 -10.8°
Enters shadow 17:14:15 14° 75° (ENE) 2,124 5.2 -11.3°
